TIME,DELAY(SENSOR),PRES,T(CTD),SAL,OXYGEN,RAWTEMP,T(OPTODE),TCPHASE,FLUOR,BETA(BETA700),BETA(BETA412),BETA(BETA440),CDOM,C(CSC),ED(ED412.40),ED(ED444.00),ED(ED489.70),ED(ED554.30),LU(LU411.80),LU(LU443.40),LU(LU489.60),LU(LU554.10),COMP,TILTX,TILTX(TILTY),CHECK
1358631253,5808,497.1300048828125000,6.4003000259399410,34.1505012512207000,69.1959762573242200,606.3239135742188000,6.3797931671142580,50.3092002868652340,52,102,89,80,80,15025,2147749275,2147423808,2148005394,2147873782,2147630016,2147074432,2148243657,2147199460,2299,4,13,57751
1358631371,5809,485.5899963378906000,6.4678001403808590,34.1352005004882800,74.4857177734375000,604.2036132812500000,6.4483928680419920,49.6255989074707000,52,104,87,79,79,15022,2147748288,2147423469,2148007360,2147873965,2147632109,2147070930,2148245686,2147199606,3321,4,13,35629
1358631486,5807,474.7200012207031000,6.6142001152038570,34.1208992004394500,79.3250579833984400,599.6406860351562000,6.5958709716796875,48.9837684631347660,51,103,89,81,79,15025,2147747995,2147426870,2148006427,2147874029,2147631597,2147079003,2148244452,2147197732,621,4,13,51243
1358631601,5807,464.7300109863281000,6.7961997985839840,34.1207008361816400,84.5953826904296900,593.7946777343750000,6.7845377922058105,48.2845916748046900,51,102,90,79,79,15022,2147750656,2147425526,2148007954,2147874048,2147631808,2147080128,2148242523,2147200612,268,4,13,32517
1358631743,5810,453.5899963378906000,7.1374001502990720,34.1232986450195300,93.2908935546875000,583.5806274414062000,7.1134071350097660,47.1564102172851560,51,105,85,80,79,15022,2147745892,2147424228,2148006006,2147874715,2147626880,2147082660,2148243913,2147198345,435,4,13,54332
1358631894,5807,442.8999938964844000,7.3052000999450680,34.1180000305175800,99.1501464843750000,578.2976074218750000,7.2831311225891110,46.4440498352050800,50,104,86,79,77,15024,2147747529,2147426349,2148004178,2147873417,2147625161,2147083648,2148235062,2147200155,2954,4,13,11618
1358632044,5807,431.6600036621094000,7.5567998886108400,34.1231994628906250,106.0288009643554700,570.3607177734375000,7.5376467704772950,45.5996704101562500,51,103,91,81,77,15025,2147746852,2147421860,2148006363,2147873773,2147625334,2147082313,2148237942,2147204836,2905,4,13,4281
1358632183,5811,420.2999877929687500,7.8043999671936035,34.1026992797851560,117.0434036254882800,560.5443115234375000,7.8516712188720700,44.3434715270996100,51,104,88,79,77,15023,2147746505,2147426733,2148003364,2147875017,2147624914,2147079680,2148240310,2147199817,2288,4,13,57811
1358632312,5806,409.4899902343750000,7.9969000816345215,34.1144981384277340,122.8339004516601600,556.5554809570312000,7.9790339469909670,43.7250099182128900,51,106,87,80,76,15021,2147745307,2147423213,2148005961,2147873069,2147624310,2147088036,2148236873,2147201051,2008,4,13,15686
1358632439,5804,397.6400146484375000,8.1253004074096680,34.1108016967773440,126.5267028808593800,552.4890136718750000,8.1087455749511720,43.3128509521484400,51,104,86,81,75,15022,2147744201,2147422491,2148003364,2147873883,2147621860,2147090953,2148235382,2147199085,1774,4,14,20299
1358632554,5808,386.3099975585937500,8.3385000228881840,34.0970001220703100,136.8114013671875000,545.8303833007812000,8.3208351135253900,42.2767982482910160,50,102,86,80,76,15022,2147743689,2147423433,2148005101,2147872740,2147626505,2147090523,2148237275,2147199222,3143,4,13,47565
1358632672,5808,374.3299865722656000,8.4912996292114260,34.0951995849609400,142.2427978515625000,540.9639282226562000,8.4756164550781250,41.7271995544433600,50,103,90,80,75,15023,2147741659,2147426459,2148006400,2147870957,2147619958,2147091401,2148233462,2147200054,53,4,13,9998
1358632787,5810,362.9500122070312500,8.8649997711181640,34.0987014770507800,153.0765075683593800,529.2730102539062000,8.8466777801513670,40.6342697143554700,50,105,87,80,74,15021,2147741174,2147424822,2148006601,2147873353,2147620608,2147091538,2148227529,2147203849,3462,4,13,1886
1358632902,5811,352.8900146484375000,9.1507997512817380,34.1007995605468750,159.4841003417968800,520.0266723632812000,9.1393995285034180,39.9699783325195300,50,101,85,79,72,15020,2147740388,2147423744,2148004736,2147872109,2147618112,2147092955,2148227547,2147199862,1833,4,14,15252
1358633044,5812,341.8599853515625000,9.5808000564575200,34.1071014404296900,174.9071960449218800,505.1842041015625000,9.6079654693603520,38.5741691589355500,50,106,88,79,72,15021,2147736548,2147423241,2148009298,2147874770,2147619547,2147096630,2148231140,2147200320,1715,4,13,9450
1358633207,5809,331.0400085449219000,9.9478998184204100,34.1139984130859400,187.0650024414062500,494.8128967285156000,9.9344463348388670,37.5638198852539060,50,104,89,81,71,15021,2147736621,2147426176,2148009956,2147873133,2147613942,2147100233,2148230674,2147205522,74,4,13,3623
1358633367,5804,319.2099914550781000,10.2874002456665040,34.1017990112304700,195.7245025634765600,483.7539062500000000,10.2817697525024410,36.8167991638183600,50,104,87,80,71,15021,2147735881,2147424356,2148007168,2147873536,2147611373,2147099748,2148228032,2147200320,1041,4,13,23671
1358633506,5808,308.4500122070312500,10.8796997070312500,34.1222991943359400,202.9526062011718800,464.4079895019531000,10.8874397277832030,36.0483703613281250,49,104,86,80,70,15021,2147734692,2147423881,2148006902,2147871222,2147608585,2147105170,2148219574,2147202441,2468,3,13,45552
1358633643,5810,297.4899902343750000,11.5673999786376950,34.1554985046386700,204.4196929931640600,442.7242126464844000,11.5636301040649410,35.6061782836914060,49,104,87,81,70,15020,2147730816,2147428571,2148008841,2147873810,2147604416,2147110948,2148217810,2147202560,3011,3,13,24865
1358633770,5810,285.8800048828125000,12.0830001831054690,34.1794013977050800,207.1112976074218800,426.2515869140625000,12.0755796432495120,35.1827888488769500,48,104,87,80,68,15019,2147730331,2147428178,2148015606,2147873728,2147602002,2147119259,2148214381,2147206774,2855,4,14,22173
1358633887,5807,274.7500000000000000,12.4574003219604500,34.1925010681152340,208.9586944580078000,413.8377990722656000,12.4604701995849610,34.8780097961425800,49,105,86,80,69,15018,2147727926,2147431003,2148021037,2147872173,2147599606,2147122660,2148217508,2147207972,30,4,13,41461
1358634002,5807,263.9200134277344000,12.8775997161865230,34.2005004882812500,209.1772003173828000,400.2658996582031000,12.8804302215576170,34.6524085998535160,49,102,88,79,69,15019,2147727332,2147435026,2148033234,2147871524,2147598802,2147128859,2148221869,2147208018,3545,3,14,37283
1358634117,5809,253.7700042724609400,13.8495998382568360,34.2531013488769500,209.2754974365234400,368.2456970214844000,13.8681602478027340,34.1536407470703100,49,103,86,80,67,15017,2147726400,2147442240,2148041097,2147872000,2147596388,2147133458,2148219675,2147208548,2067,3,14,26504
1358634246,5808,242.9199981689453000,14.2769002914428710,34.3191986083984400,208.7933044433593800,351.0264892578125000,14.3977499008178710,33.9213981628418000,48,102,87,80,67,15017,2147730349,2147485778,2148151881,2147869778,2147592438,2147159725,2148270217,2147216420,1737,2,14,35588
1358634397,5808,231.6600036621093800,15.8836002349853520,34.4958992004394500,207.7147979736328000,302.8304138183594000,15.8755598068237300,33.2696990966796900,48,105,87,80,68,15011,2147728420,2147519771,2148213467,2147873289,2147589531,2147191360,2148293952,2147217737,1626,3,13,45735
1358634545,5808,220.0399932861328000,16.9484004974365230,34.6269989013671900,209.7583007812500000,267.7781066894531000,16.9474391937255860,32.6490402221679700,49,102,87,79,66,15009,2147731977,2147557339,2148279606,2147874816,2147588041,2147219465,2148319872,2147220470,3145,3,13,9248
1358634660,5805,209.3999938964843800,17.4636993408203120,34.7033996582031250,212.3493957519531200,251.0113983154297000,17.4596500396728500,32.2680511474609400,50,103,87,80,65,15004,2147749348,2147635282,2148416365,2147873270,2147587437,2147270134,2148386258,2147225042,264,3,14,63211
1358634789,5807,197.6900024414062500,18.4671001434326170,34.8451995849609400,213.4929046630859400,217.5316925048828000,18.4820995330810550,31.7392807006835940,50,102,86,80,64,15005,2147778386,2147738038,2148579593,2147874843,2147595968,2147338678,2148461842,2147231369,2556,3,14,43953
1358634844,5812,192.8999938964843800,18.6537990570068360,34.8754005432128900,214.7494964599609400,211.6320037841797000,18.6622791290283200,31.5901603698730470,50,103,86,80,63,15004,2147781266,2147744073,2148562368,2147872356,2147598619,2147348781,2148450587,2147232493,3537,3,15,17456
1358634899,5806,188.0299987792968800,18.7560005187988280,34.8931007385253900,215.3551940917968800,207.8999938964843800,18.7762699127197270,31.5066890716552730,50,105,89,80,66,14999,2147814308,2147843547,2148731419,2147871771,2147611419,2147416813,2148540653,2147239652,391,3,14,15721
1358634954,5808,183.4700012207031200,18.9235000610351560,34.9151000976562500,215.3645935058593800,203.1123962402343800,18.9225006103515620,31.4410495758056640,53,102,86,80,66,14999,2147854464,2147952658,2148898724,2147872384,2147625124,2147482797,2148621750,2147248475,1439,3,15,964
1358635009,5807,179.1199951171875000,19.0319004058837900,34.9310989379882800,215.3889007568359400,199.1618957519531200,19.0431900024414060,31.3859691619873050,53,104,89,80,64,14998,2147897956,2148053732,2149040585,2147874998,2147644534,2147539584,2148690660,2147252315,1375,2,15,52947
1358635064,5807,174.9700012207031200,19.1583995819091800,34.9501991271972660,215.5751037597656200,195.0101928710937500,19.1700191497802730,31.3193397521972660,53,105,88,80,64,14999,2147949193,2148153170,2149184082,2147875373,2147667721,2147615378,2148765824,2147258422,1260,3,15,20938
1358635139,5810,169.8800048828125000,19.4664993286132800,34.9883003234863300,215.4942016601562500,185.6015930175781200,19.4575290679931640,31.1963100433349600,55,104,89,80,64,14995,2148018313,2148282560,2149344548,2147877430,2147695378,2147694445,2148848338,2147266898,1443,3,15,44903
1358635206,5809,166.1699981689453000,19.9528007507324220,35.0508995056152340,215.1036987304687500,169.5355987548828000,19.9487094879150400,31.0001392364501950,59,108,88,81,62,14989,2148098514,2148419181,2149522413,2147880585,2147730267,2147776987,2148937398,2147274432,1495,2,15,50681
1358635285,5808,162.6699981689453000,20.3621997833251950,35.0984992980957000,216.1607971191406200,155.9568023681640600,20.3641605377197270,30.7631492614746100,66,110,88,80,63,14981,2148211803,2148604891,2149754797,2147879588,2147778075,2147886528,2149047222,2147283026,1143,3,15,16138
1358635376,5803,158.3099975585937500,20.6912994384765620,35.1301994323730500,215.9944000244140600,143.2042999267578000,20.7546405792236330,30.6021194458007800,70,116,90,82,62,14970,2148384256,2148859721,2150060269,2147882148,2147844690,2148031232,2149186816,2147295222,1269,2,15,13790
1358635457,5807,154.6900024414062500,21.1324996948242200,35.1705017089843750,218.5113067626953000,131.3908996582031200,21.1166896820068360,30.3156394958496100,81,116,89,82,64,14960,2148573595,2149125650,2150368164,2147882340,2147922523,2148162322,2149313654,2147303323,820,2,15,3450
1358635548,5804,150.1300048828125000,21.4599990844726560,35.2028007507324200,220.5590057373047000,120.9542999267578100,21.4368305206298830,30.0742797851562500,91,120,89,82,62,14950,2148863917,2149524699,2150822134,2147885293,2148039542,2148366948,2149509705,2147323291,855,2,15,39564
1358635615,5807,146.6199951171875000,21.5736007690429700,35.2056999206543000,222.3395996093750000,117.8938980102539000,21.5307693481445300,29.9447708129882800,96,124,89,83,62,14941,2149137865,2149906715,2151268470,2147889782,2148146294,2148543533,2149679643,2147339803,1105,2,16,15099
1358635694,5809,142.2200012207031200,21.7696990966796880,35.2160987854003900,223.9196014404297000,110.9720993041992200,21.7433204650878900,29.7757301330566400,107,120,91,83,62,14927,2149498770,2150379227,2151804361,2147893723,2148286628,2148756763,2149895826,2147357558,2091,2,15,13751
1358635763,5808,138.2200012207031200,21.7966995239257800,35.2178001403808600,224.9472045898437500,109.4847030639648400,21.7890205383300780,29.7055397033691400,112,121,94,83,61,14917,2149890377,2150883748,2152413147,2147899108,2148437321,2148984237,2150140434,2147386715,2928,2,16,52606
1358635830,5810,133.9199981689453000,21.8812007904052730,35.2196006774902340,225.5964050292968800,105.9036026000976600,21.8990592956542970,29.6273307800292970,117,123,91,83,62,14915,2150520128,2151709878,2153386468,2147911332,2148678601,2149358793,2150521142,2147415186,265,1,16,33283
1358635897,5810,130.0500030517578000,22.3353004455566400,35.2652015686035160,227.1076965332031200,93.5787811279296900,22.2780990600585940,29.3948307037353500,124,124,92,83,61,14905,2151035611,2152359670,2154093686,2147917193,2148873984,2149626121,2150777956,2147436260,400,2,15,24169
1358635976,5808,126.5599975585937500,22.3351001739501950,35.2565002441406250,230.5200042724609400,92.0270462036132800,22.3258590698242200,29.2107505798339840,138,126,92,85,61,14890,2151771209,2153271853,2155098715,2147929810,2149137664,2149977874,2151143021,2147476315,253,2,15,45840
1358636081,5808,123.0199966430664000,22.3778991699218750,35.2243995666503900,230.9909057617187500,90.5363006591796900,22.3717498779296880,29.1691207885742200,145,126,91,83,62,14882,2152795629,2154545563,2156494720,2147947638,2149488356,2150453302,2151626450,2147519808,126,2,15,52449
1358636232,5807,119.3899993896484400,22.6175994873046880,35.2406005859375000,231.7606964111328000,83.4846725463867200,22.5889301300048830,29.0428905487060550,154,128,90,83,61,14765,2154016484,2156006976,2157998528,2147965138,2149882066,2150934646,2152125220,2147571986,2677,2,16,34645
1358636439,5806,114.7200012207031200,22.7581996917724600,35.2509002685546900,234.8050994873047000,78.3899688720703100,22.7459602355957030,28.8354301452636720,153,124,89,84,61,14858,2156348644,2158691227,2160541238,2147994386,2150675684,2151862738,2152985280,2147662189,2493,2,16,6722
1358636542,5807,111.1399993896484400,23.0139999389648440,35.2471008300781250,235.4624023437500000,70.0489120483398400,23.0032691955566400,28.6997795104980470,154,126,88,84,61,14864,2157929078,2160274157,2161740379,2148022043,2151193865,2152315730,2153295652,2147707227,2324,1,16,49507
1358636717,5807,106.9000015258789000,23.3798007965087900,35.2504997253418000,236.9125976562500000,58.6226806640625000,23.3562107086181640,28.4891891479492200,113,120,90,83,60,14896,2162568914,2165726619,2167103917,2148092717,2153217682,2154801664,2155537965,2147929600,1275,2,16,8469
1358636844,5806,103.0299987792968800,23.6102008819580080,35.2680015563964840,237.6329956054687500,51.2223091125488300,23.5851001739501950,28.3638896942138670,101,119,91,83,60,14892,2165609974,2168665600,2169455168,2148144365,2154940946,2156707072,2157007606,2148069769,907,2,15,60423
1358636995,5811,99.2699966430664000,24.2285995483398440,35.2943992614746100,236.7758026123047000,30.9676094055175780,24.2128906250000000,28.1505393981933600,85,121,89,83,58,14903,2168430665,2171304201,2171563401,2148204242,2157113444,2159003318,2158746322,2148237504,3303,2,16,8307
1358637074,5807,96.8099975585937500,24.2668991088867200,35.2975997924804700,237.1152038574218800,29.5374393463134770,24.2572898864746100,28.1172199249267580,83,121,92,83,59,14904,2171628123,2174652800,2174533257,2148295744,2159342418,2161302354,2160435776,2148397860,3000,2,16,42648
1358637129,5807,94.8799972534179700,24.3090991973876950,35.2998008728027340,237.2127075195312500,28.0411796569824220,24.3037605285644530,28.0943107604980470,80,121,91,83,57,14901,2173743862,2176968018,2176596516,2148354358,2161108882,2163178322,2161776740,2148524480,2875,1,16,30840
1358637184,5806,92.9800033569336000,24.4029998779296880,35.3035011291503900,236.9828948974609400,25.1762104034423830,24.3927707672119140,28.0692501068115230,83,121,91,84,60,14896,2175136100,2178289718,2177346176,2148376667,2162557348,2164589677,2162666185,2148600969,2425,1,16,34493
1358637239,5809,91.1500015258789000,24.5730991363525400,35.3191986083984400,236.6374053955078000,19.4892597198486330,24.5695705413818360,28.0144805908203120,83,121,91,84,56,14895,2177216155,2180710052,2179619456,2148466697,2164550454,2166698916,2164179702,2148742619,2137,1,17,6289
1358637317,5815,88.8099975585937500,24.6417007446289060,35.3310012817382800,236.6315002441406200,16.4960498809814450,24.6627006530761720,27.9777393341064450,73,119,90,84,58,14902,2181005211,2184988059,2183675830,2148598601,2168114843,2170319570,2166639323,2148974290,1773,2,16,60479
1358637372,5807,86.4300003051757800,24.7465000152587900,35.3459014892578100,236.4427947998047000,14.1527204513549800,24.7356395721435550,27.9571704864501950,67,118,91,85,60,14906,2183898889,2188369197,2186898989,2148745124,2171562358,2173713417,2168772626,2149169508,1571,1,16,47771
1358637427,5806,83.6699981689453100,24.7497997283935550,35.3469009399414060,236.5059967041015600,13.8198099136352540,24.7460098266601560,27.9502792358398440,67,117,93,82,58,14902,2186857334,2191583186,2189884233,2148856548,2175532809,2177680347,2171407789,2149396214,1460,2,16,32491
1358637482,5810,80.6999969482421900,24.7614994049072270,35.3483009338378900,236.6192932128906200,13.4871997833251950,24.7563591003417970,27.9410400390625000,65,116,93,84,57,14901,2190646473,2195263981,2193358180,2149154514,2180329188,2182322633,2174390601,2149671149,1197,1,16,59584
1358637537,5807,77.7399978637695300,24.7658004760742200,35.3501014709472660,236.7946014404297000,13.2625799179077150,24.7633590698242200,27.9302902221679700,63,117,88,82,57,14898,2195347529,2200231424,2198279286,2149474157,2185250907,2187212589,2177698404,2149971264,886,1,16,62725
1358637592,5810,74.9300003051757800,24.7653999328613280,35.3493003845214840,236.7494049072265600,13.2486095428466800,24.7637901306152340,27.9323005676269530,62,117,89,83,54,14894,2199476781,2204782253,2202868589,2149775744,2189972882,2191705837,2180438619,2150243501,725,2,16,37773
1358637650,5808,71.9100036621093800,24.7723999023437500,35.3494987487793000,236.9275970458984400,13.0109996795654300,24.7711906433105470,27.9212398529052730,62,117,89,84,52,14902,2205261019,2210805394,2208790171,2150237842,2197715666,2199796050,2186192813,2150768128,322,1,16,39728
1358637705,5811,69.1699981689453100,24.7789993286132800,35.3494987487793000,236.8722991943359400,12.7723102569580080,24.7786197662353500,27.9207496643066400,61,118,92,83,57,14895,2207002349,2211924790,2209370358,2150511652,2201680713,2203268690,2188264630,2150966802,23,2,15,9746
1358637760,5806,66.3600006103515600,24.7782001495361330,35.3504981994628900,236.8995971679687500,12.7276601791381840,24.7800102233886720,27.9188995361328120,61,116,92,83,55,14897,2211603236,2216566601,2213812425,2151150464,2209278189,2210582244,2193150866,2151541659,3575,1,16,44115
1358637815,5807,63.4199981689453100,24.7789993286132800,35.3501014709472660,236.9824066162109400,12.6602897644042970,24.7821102142334000,27.9144992828369140,61,115,92,86,56,14899,2219255286,2224850084,2222340672,2152178057,2217802916,2219038573,2198911094,2152129289,3481,1,16,44880
1358637870,5808,60.1800003051757800,24.7880992889404300,35.3487014770507800,237.1045989990234400,12.3715496063232420,24.7911090850830080,27.9052391052246100,60,116,90,84,56,14893,2226980013,2233264649,2230742308,2153191277,2226496146,2227414116,2204474130,2152714011,3390,2,16,4229
1358637925,5807,56.6699981689453100,24.7896003723144530,35.3488006591796900,237.1965026855468800,12.2972898483276370,24.7934207916259770,27.9003200531005860,59,118,93,84,55,14887,2236743305,2243900982,2241633746,2154904493,2237267584,2237874093,2211511990,2153610294,3285,1,16,27239
1358637983,5807,52.8300018310546900,24.7985992431640620,35.3488006591796900,237.1679992675781200,12.0810298919677730,24.8001499176025400,27.8989105224609380,60,116,92,84,57,14884,2248995730,2256513600,2254148937,2157510628,2252843547,2252912182,2221896950,2154909714,3391,2,17,8500
1358638038,5808,49.1899986267089840,24.7994995117187500,35.3484992980957000,237.0646057128906200,11.8183403015136720,24.8083305358886720,27.9003295898437500,58,118,92,84,56,14889,2257543698,2265174381,2262446701,2159472658,2263678070,2262965302,2228594377,2156024493,3164,2,17,25301
1358638093,5809,45.6100006103515600,24.8041992187500000,35.3492012023925800,237.3231964111328000,11.6886196136474610,24.8123703002929700,27.8870296478271500,57,117,90,83,57,14883,2273024466,2282045467,2280905097,2164166253,2279892269,2278446034,2238987026,2157637440,3324,1,16,41440
1358638148,5809,41.8199996948242200,24.8073005676269530,35.3488998413085940,237.3003997802734400,11.4798297882080080,24.8188800811767580,27.8854808807373050,57,120,92,84,56,14886,2283461065,2292555593,2291621924,2169150317,2299270674,2297021110,2251646162,2159924809,2943,1,16,32636
1358638203,5806,38.0499992370605500,24.8087005615234380,35.3494987487793000,237.2588043212890600,11.5984296798706050,24.8151798248291000,27.8886909484863280,57,116,90,84,57,14886,2298536274,2309042240,2309227492,2176150482,2312559497,2309061046,2260016173,2161900315,2840,1,16,17443
1358638258,5808,34.5900001525878900,24.8220996856689450,35.3490982055664060,237.3316955566406200,11.0509300231933600,24.8322391510009770,27.8786201477050780,55,117,93,84,59,14886,2314687561,2325923876,2327625499,2184794157,2334241563,2329749211,2274244406,2164653037,3057,1,16,41424
1358638333,5807,30.3999996185302730,24.8274002075195300,35.3493995666503900,237.3251953125000000,10.6801595687866210,24.8437900543212900,27.8744392395019530,54,116,92,83,57,14882,2324675373,2333821924,2335189650,2193389385,2358448256,2351517467,2289178852,2168774537,3286,2,16,51042
1358638388,5809,27.9699993133544920,24.8418998718261720,35.3497009277343750,237.3659057617187500,9.9489479064941400,24.8665695190429700,27.8636302947998050,53,118,89,83,57,14892,2337112877,2347152539,2350019437,2201990262,2373809069,2366097389,2298999936,2170562066,3183,0,17,59849
1358638443,5809,25.6900005340576170,24.8645992279052730,35.3479003906250000,237.2180938720703000,9.4468832015991210,24.8822097778320300,27.8640594482421880,53,116,89,84,55,14884,2350478290,2361056448,2364962413,2212953216,2389292141,2379929069,2308991689,2174228900,3238,0,16,14454
